Terminal Aerodrome Forecast
Issued by NWS Austin/San Antonio, TX

Home | Current Version | Previous Version | Text Only | Print | Product List | Glossary On
Versions: 1 2 3 4 5 6 7 8 9 10 11 12 13 14 15 16 17 18 19
795
FTUS44 KEWX 212340
TAFAUS
TAF
KAUS 212340Z 2200/2306 17007KT P6SM FEW080 SCT250
     FM221100 18007KT P6SM SCT015 SCT250
     FM230000 15009KT P6SM OVC250=

USA.gov is the U.S. government's official web portal to all federal, state and local government web resources and services.